Time,TemperatureF,DewpointF,PressureIn,WindDirection,WindDirectionDegrees,WindSpeedMPH,WindSpeedGustMPH,Humidity,HourlyPrecipIn,Conditions,Clouds,dailyrainin,SoftwareType,DateUTC
2015-05-04 00:01:00,63.0,46.0,-100.00,ESE,110,1.0,2.0,52,-99.99,,,-99.99,,2015-05-04 04:01:00,
2015-05-04 00:11:00,64.0,45.0,-100.00,East,80,1.0,2.0,51,-99.99,,,-99.99,,2015-05-04 04:11:00,
2015-05-04 00:21:00,63.0,45.0,-100.00,East,95,1.0,2.0,51,-99.99,,,-99.99,,2015-05-04 04:21:00,
2015-05-04 00:31:00,63.0,45.0,-100.00,East,80,1.0,2.0,50,-99.99,,,-99.99,,2015-05-04 04:31:00,
2015-05-04 00:42:00,62.0,45.0,-100.00,ENE,70,1.0,3.0,53,-99.99,,,-99.99,,2015-05-04 04:42:00,
2015-05-04 00:51:00,62.0,45.0,-100.00,ENE,70,1.0,3.0,53,-99.99,,,-99.99,,2015-05-04 04:51:00,
2015-05-04 01:02:00,62.0,45.0,-100.00,ENE,75,2.0,3.0,53,-99.99,,,-99.99,,2015-05-04 05:02:00,
2015-05-04 01:11:00,63.0,45.0,-100.00,East,100,1.0,3.0,51,-99.99,,,-99.99,,2015-05-04 05:11:00,
2015-05-04 01:21:00,63.0,45.0,-100.00,ESE,120,1.0,3.0,52,-99.99,,,-99.99,,2015-05-04 05:21:00,
2015-05-04 01:31:00,62.0,45.0,-100.00,East,85,1.0,3.0,53,-99.99,,,-99.99,,2015-05-04 05:31:00,
2015-05-04 01:42:00,62.0,45.0,-100.00,SE,135,1.0,3.0,54,-99.99,,,-99.99,,2015-05-04 05:42:00,
2015-05-04 01:51:00,62.0,45.0,-100.00,ESE,110,1.0,3.0,52,-99.99,,,-99.99,,2015-05-04 05:51:00,
2015-05-04 02:02:00,62.0,45.0,-100.00,East,90,1.0,3.0,52,-99.99,,,-99.99,,2015-05-04 06:02:00,
2015-05-04 02:11:00,61.0,45.0,-100.00,East,85,0.0,2.0,55,-99.99,,,-99.99,,2015-05-04 06:11:00,
2015-05-04 02:20:00,60.0,46.0,-100.00,East,95,0.0,1.0,58,-99.99,,,-99.99,,2015-05-04 06:20:00,
2015-05-04 02:22:00,60.0,46.0,-100.00,ENE,70,1.0,1.0,58,-99.99,,,-99.99,,2015-05-04 06:22:00,
2015-05-04 02:42:00,60.0,46.0,-100.00,East,95,0.0,1.0,58,-99.99,,,-99.99,,2015-05-04 06:42:00,
2015-05-04 02:51:00,60.0,46.0,-100.00,East,95,0.0,1.0,58,-99.99,,,-99.99,,2015-05-04 06:51:00,
2015-05-04 03:02:00,60.0,46.0,-100.00,East,95,0.0,1.0,58,-99.99,,,-99.99,,2015-05-04 07:02:00,
2015-05-04 03:11:00,60.0,46.0,-100.00,East,95,0.0,1.0,58,-99.99,,,-99.99,,2015-05-04 07:11:00,
2015-05-04 03:42:00,56.0,46.0,-100.00,ENE,65,1.0,1.0,68,-99.99,,,-99.99,,2015-05-04 07:42:00,
2015-05-04 03:51:00,57.0,46.0,-100.00,NW,310,0.0,1.0,67,-99.99,,,-99.99,,2015-05-04 07:51:00,
2015-05-04 04:01:00,57.0,46.0,-100.00,East,80,0.0,0.0,66,-99.99,,,-99.99,,2015-05-04 08:01:00,
2015-05-04 04:11:00,58.0,46.0,-100.00,East,85,0.0,1.0,64,-99.99,,,-99.99,,2015-05-04 08:11:00,
2015-05-04 04:21:00,57.0,46.0,-100.00,ENE,75,0.0,1.0,66,-99.99,,,-99.99,,2015-05-04 08:21:00,
2015-05-04 04:31:00,57.0,46.0,-100.00,NE,35,1.0,1.0,66,-99.99,,,-99.99,,2015-05-04 08:31:00,
2015-05-04 04:41:00,57.0,46.0,-100.00,NE,45,0.0,1.0,67,-99.99,,,-99.99,,2015-05-04 08:41:00,
2015-05-04 04:51:00,57.0,46.0,-100.00,NE,35,0.0,2.0,66,-99.99,,,-99.99,,2015-05-04 08:51:00,
2015-05-04 05:01:00,57.0,46.0,-100.00,East,90,0.0,2.0,66,-99.99,,,-99.99,,2015-05-04 09:01:00,
2015-05-04 05:11:00,57.0,46.0,-100.00,East,80,1.0,2.0,65,-99.99,,,-99.99,,2015-05-04 09:11:00,
2015-05-04 05:21:00,58.0,46.0,-100.00,ESE,110,1.0,3.0,64,-99.99,,,-99.99,,2015-05-04 09:21:00,
2015-05-04 05:31:00,58.0,46.0,-100.00,SSE,160,1.0,3.0,64,-99.99,,,-99.99,,2015-05-04 09:31:00,
2015-05-04 05:42:00,58.0,46.0,-100.00,South,175,1.0,2.0,64,-99.99,,,-99.99,,2015-05-04 09:42:00,
2015-05-04 05:51:00,58.0,46.0,-100.00,SSE,160,1.0,3.0,63,-99.99,,,-99.99,,2015-05-04 09:51:00,
2015-05-04 06:01:00,58.0,46.0,-100.00,East,100,1.0,3.0,63,-99.99,,,-99.99,,2015-05-04 10:01:00,
2015-05-04 06:11:00,58.0,46.0,-100.00,SE,130,1.0,3.0,63,-99.99,,,-99.99,,2015-05-04 10:11:00,
2015-05-04 06:21:00,59.0,46.0,-100.00,SE,135,2.0,4.0,61,-99.99,,,-99.99,,2015-05-04 10:21:00,
2015-05-04 06:32:00,58.0,46.0,-100.00,ESE,120,1.0,4.0,62,-99.99,,,-99.99,,2015-05-04 10:32:00,
2015-05-04 06:42:00,59.0,46.0,-100.00,ESE,110,2.0,5.0,62,-99.99,,,-99.99,,2015-05-04 10:42:00,
2015-05-04 06:52:00,59.0,46.0,-100.00,ESE,120,2.0,6.0,61,-99.99,,,-99.99,,2015-05-04 10:52:00,
2015-05-04 07:02:00,59.0,46.0,-100.00,SE,125,2.0,4.0,62,-99.99,,,-99.99,,2015-05-04 11:02:00,
2015-05-04 07:12:00,60.0,46.0,-100.00,SE,140,2.0,4.0,60,-99.99,,,-99.99,,2015-05-04 11:12:00,
2015-05-04 07:21:00,61.0,46.0,-100.00,SSE,150,2.0,5.0,59,-99.99,,,-99.99,,2015-05-04 11:21:00,
2015-05-04 07:32:00,60.0,47.0,-100.00,SE,145,2.0,6.0,60,-99.99,,,-99.99,,2015-05-04 11:32:00,
2015-05-04 07:42:00,61.0,47.0,-100.00,ESE,120,2.0,6.0,60,-99.99,,,-99.99,,2015-05-04 11:42:00,
2015-05-04 07:52:00,62.0,47.0,-100.00,ESE,115,4.0,6.0,57,-99.99,,,-99.99,,2015-05-04 11:52:00,
2015-05-04 08:02:00,63.0,47.0,-100.00,ESE,110,4.0,6.0,56,-99.99,,,-99.99,,2015-05-04 12:02:00,
2015-05-04 08:11:00,63.0,47.0,-100.00,ESE,115,5.0,8.0,55,-99.99,,,-99.99,,2015-05-04 12:11:00,
2015-05-04 08:22:00,63.0,47.0,-100.00,ESE,120,4.0,9.0,56,-99.99,,,-99.99,,2015-05-04 12:22:00,
2015-05-04 08:32:00,64.0,47.0,-100.00,SE,125,6.0,9.0,54,-99.99,,,-99.99,,2015-05-04 12:32:00,
2015-05-04 08:42:00,65.0,47.0,-100.00,SE,135,6.0,9.0,53,-99.99,,,-99.99,,2015-05-04 12:42:00,
2015-05-04 08:52:00,65.0,47.0,-100.00,SE,130,7.0,11.0,52,-99.99,,,-99.99,,2015-05-04 12:52:00,
2015-05-04 09:02:00,66.0,48.0,-100.00,SE,125,6.0,10.0,51,-99.99,,,-99.99,,2015-05-04 13:02:00,
2015-05-04 09:11:00,67.0,47.0,-100.00,ESE,110,10.0,16.0,48,-99.99,,,-99.99,,2015-05-04 13:11:00,
2015-05-04 09:22:00,68.0,48.0,-100.00,SE,140,8.0,12.0,47,-99.99,,,-99.99,,2015-05-04 13:22:00,
2015-05-04 09:31:00,69.0,47.0,-100.00,SE,140,7.0,16.0,46,-99.99,,,-99.99,,2015-05-04 13:31:00,
2015-05-04 09:41:00,70.0,48.0,-100.00,SSE,160,8.0,12.0,46,-99.99,,,-99.99,,2015-05-04 13:41:00,
2015-05-04 09:51:00,70.0,48.0,-100.00,SE,130,7.0,14.0,45,-99.99,,,-99.99,,2015-05-04 13:51:00,
2015-05-04 10:01:00,70.0,47.0,-100.00,SSE,160,6.0,12.0,44,-99.99,,,-99.99,,2015-05-04 14:01:00,
2015-05-04 10:42:00,72.0,48.0,-100.00,SE,135,11.0,17.0,42,-99.99,,,-99.99,,2015-05-04 14:42:00,
2015-05-04 10:52:00,73.0,48.0,-100.00,SE,125,11.0,22.0,42,-99.99,,,-99.99,,2015-05-04 14:52:00,
2015-05-04 11:02:00,73.0,48.0,-100.00,SSE,160,9.0,12.0,41,-99.99,,,-99.99,,2015-05-04 15:02:00,
2015-05-04 11:32:00,74.0,49.0,-100.00,SSE,155,9.0,18.0,40,-99.99,,,-99.99,,2015-05-04 15:32:00,
2015-05-04 11:42:00,74.0,47.0,-100.00,South,170,11.0,19.0,38,-99.99,,,-99.99,,2015-05-04 15:42:00,
2015-05-04 12:32:00,75.0,49.0,-100.00,SSE,155,9.0,19.0,39,-99.99,,,-99.99,,2015-05-04 16:32:00,
2015-05-04 13:02:00,77.0,49.0,-100.00,SE,145,11.0,19.0,37,-99.99,,,-99.99,,2015-05-04 17:02:00,
2015-05-04 13:11:00,77.0,49.0,-100.00,SE,145,11.0,22.0,37,-99.99,,,-99.99,,2015-05-04 17:11:00,
2015-05-04 13:32:00,77.0,50.0,-100.00,SE,145,12.0,22.0,37,-99.99,,,-99.99,,2015-05-04 17:32:00,
2015-05-04 13:51:00,78.0,49.0,-100.00,South,185,12.0,21.0,36,-99.99,,,-99.99,,2015-05-04 17:51:00,
2015-05-04 14:02:00,78.0,49.0,-100.00,South,190,11.0,18.0,36,-99.99,,,-99.99,,2015-05-04 18:02:00,
2015-05-04 14:12:00,77.0,50.0,-100.00,South,175,6.0,21.0,37,-99.99,,,-99.99,,2015-05-04 18:12:00,
2015-05-04 15:13:00,76.0,50.0,-100.00,South,180,7.0,15.0,39,-99.99,,,-99.99,,2015-05-04 19:13:00,
2015-05-04 15:32:00,76.0,51.0,-100.00,South,170,7.0,14.0,42,-99.99,,,-99.99,,2015-05-04 19:32:00,
2015-05-04 15:52:00,75.0,53.0,-100.00,South,175,5.0,13.0,45,-99.99,,,-99.99,,2015-05-04 19:52:00,
2015-05-04 16:02:00,75.0,53.0,-100.00,South,170,7.0,11.0,46,-99.99,,,-99.99,,2015-05-04 20:02:00,
2015-05-04 16:32:00,74.0,55.0,-100.00,SE,145,5.0,10.0,52,-99.99,,,-99.99,,2015-05-04 20:32:00,
2015-05-04 16:42:00,75.0,55.0,-100.00,South,175,6.0,11.0,49,-99.99,,,-99.99,,2015-05-04 20:42:00,
2015-05-04 16:51:00,75.0,55.0,-100.00,South,180,4.0,9.0,49,-99.99,,,-99.99,,2015-05-04 20:51:00,
2015-05-04 17:01:00,75.0,55.0,-100.00,SE,125,4.0,9.0,48,-99.99,,,-99.99,,2015-05-04 21:01:00,
2015-05-04 17:52:00,77.0,53.0,-100.00,SSE,160,5.0,12.0,43,-99.99,,,-99.99,,2015-05-04 21:52:00,
2015-05-04 18:02:00,77.0,53.0,-100.00,SSE,160,6.0,13.0,43,-99.99,,,-99.99,,2015-05-04 22:02:00,
2015-05-04 18:11:00,77.0,53.0,-100.00,SE,130,5.0,11.0,43,-99.99,,,-99.99,,2015-05-04 22:11:00,
2015-05-04 18:21:00,77.0,54.0,-100.00,SSE,160,4.0,18.0,44,-99.99,,,-99.99,,2015-05-04 22:21:00,
2015-05-04 18:32:00,76.0,52.0,-100.00,SE,140,8.0,13.0,43,-99.99,,,-99.99,,2015-05-04 22:32:00,
2015-05-04 19:22:00,76.0,53.0,-100.00,South,180,4.0,9.0,45,-99.99,,,-99.99,,2015-05-04 23:22:00,
2015-05-04 19:42:00,76.0,53.0,-100.00,South,170,4.0,7.0,44,-99.99,,,-99.99,,2015-05-04 23:42:00,
2015-05-04 19:52:00,76.0,53.0,-100.00,South,170,6.0,8.0,45,-99.99,,,-99.99,,2015-05-04 23:52:00,
2015-05-04 20:02:00,76.0,53.0,-100.00,SSE,165,5.0,9.0,45,-99.99,,,-99.99,,2015-05-05 00:02:00,
2015-05-04 20:11:00,76.0,54.0,-100.00,SSE,160,2.0,8.0,46,-99.99,,,-99.99,,2015-05-05 00:11:00,
2015-05-04 20:32:00,75.0,54.0,-100.00,South,175,3.0,6.0,47,-99.99,,,-99.99,,2015-05-05 00:32:00,
2015-05-04 20:42:00,74.0,54.0,-100.00,SSE,155,2.0,4.0,49,-99.99,,,-99.99,,2015-05-05 00:42:00,
2015-05-04 20:51:00,74.0,54.0,-100.00,SE,135,2.0,4.0,50,-99.99,,,-99.99,,2015-05-05 00:51:00,
2015-05-04 21:02:00,74.0,55.0,-100.00,SSE,160,1.0,4.0,50,-99.99,,,-99.99,,2015-05-05 01:02:00,
2015-05-04 21:31:00,72.0,55.0,-100.00,South,170,1.0,4.0,54,-99.99,,,-99.99,,2015-05-05 01:31:00,
2015-05-04 21:42:00,72.0,55.0,-100.00,SSE,160,2.0,6.0,56,-99.99,,,-99.99,,2015-05-05 01:42:00,
2015-05-04 21:51:00,71.0,55.0,-100.00,SE,125,2.0,6.0,57,-99.99,,,-99.99,,2015-05-05 01:51:00,
2015-05-04 22:02:00,71.0,55.0,-100.00,NNW,340,1.0,3.0,57,-99.99,,,-99.99,,2015-05-05 02:02:00,